Terug naar catalogus

OPS 4682 DEB

ActiefPO
NORAD 55115·DEBRIS·🇺🇸 United States

Gelanceerd Apr 3, 1965 vanaf Vandenberg Space Force Base

Loading…

Volgende Passages (komende 24 uur)

TLE

VersSource: Space-Track

Epoch: Sep 14, 2026, 01:06 UTC

1 55115U 65027HE  26257.04604026  .00000808  00000-0  26882-2 0  9995
2 55115  90.2393   0.0855 0028640 114.1750 246.2370 12.99168968546796

Volg OPS 4682 DEB in realtime met AllMySat

Download on the App Store